Flag for U.S.A. Weather past 2 weeks in Salina, Kansas, U.S.A.

Now
68 °F

Sunny.


Feels Like: 68 °F
Forecast: 53 / 86 °F
Wind: 15 mph from South

Location: Salina Municipal Airport

Current Time: Apr 1, 2015 at 10:22:16 AM

Latest Report: Apr 1, 2015 at 9:53 AM


Visibility: 10 mi

Pressure: 29.76 "Hg

Humidity: 53%

Dew point: 50 °F

Location of SalinaLocation

Historic Weather in Salina — Graph

°F

Salina temperature yesterday

Maximum temperature yesterday: 81 °F (at 2:53 PM)
Minimum temperature yesterday: 41 °F (at 6:53 AM)
Average temperature yesterday: 62 °F

Past Weeks' High & Low Weather Summary

 TemperatureHumidityPressure
High81 °F (Mar 31, 2:53 PM)96% (Mar 20, 2:53 AM)30.43 "Hg (Mar 20, 2:53 AM)
Low28 °F (Mar 26, 7:53 AM)15% (Mar 17, 3:53 PM)29.77 "Hg (Apr 1, 6:53 AM)
Average51 °F57%30.06 "Hg
* Reported Mar 17 8:53 AM — Apr 1 8:53 AM, Salina, Weather by CustomWeather, © 2015

Note: Actual official high and low records may vary slightly from our data, if they occured in-between our weather recording intervals... More about our weather records

Advertising

Salina weather history for previous 24 hours

 ConditionsComfort  
Time TempWeatherWind HumidityBarometerVisibility
8:53 AM
Wed, Apr 1
60 °FSunny.8 mph67%29.77 "Hg6 mi
7:53 AM55 °FClear.8 mph74%29.77 "Hg6 mi
6:53 AM56 °FClear.9 mph70%29.77 "Hg8 mi
5:53 AM57 °FClear.12 mph67%29.78 "Hg9 mi
4:53 AM59 °FClear.15 mph62%29.80 "Hg10 mi
3:53 AM61 °FClear.14 mph54%29.80 "Hg10 mi
2:53 AM55 °FClear.10 mph55%29.82 "Hg10 mi
1:53 AM55 °FClear.9 mph53%29.83 "Hg10 mi
12:53 AM60 °FClear.12 mph42%29.82 "Hg10 mi
11:53 PM
Tue, Mar 31
60 °FClear.10 mph39%29.84 "Hg10 mi
10:53 PM61 °FClear.8 mph38%29.85 "Hg9 mi
9:53 PM63 °FClear.9 mph35%29.87 "Hg8 mi
8:53 PM66 °FClear.8 mph31%29.88 "Hg9 mi
7:53 PM71 °FSunny.7 mph25%29.87 "Hg10 mi
6:53 PM78 °FSunny.12 mph19%29.86 "Hg10 mi
5:53 PM80 °FSunny.9 mph17%29.86 "Hg10 mi
4:53 PM81 °FSunny.14 mph16%29.87 "Hg10 mi
3:53 PM81 °FSunny.7 mph16%29.90 "Hg10 mi
2:53 PM81 °FSunny.7 mph17%29.92 "Hg10 mi
1:53 PM79 °FSunny.12 mph18%29.95 "Hg10 mi
12:53 PM77 °FSunny.12 mph22%29.97 "Hg10 mi
11:53 AM72 °FSunny.12 mph28%29.99 "Hg10 mi
10:53 AM66 °FSunny.9 mph33%30.01 "Hg10 mi
Weather by CustomWeather, © 2015

See weather overviewHow to use our weather pages